MDT,Max TemperatureF,Mean TemperatureF,Min TemperatureF,Max Dew PointF,MeanDew PointF,Min DewpointF,Max Humidity, Mean Humidity, Min Humidity, Max Sea Level PressureIn, Mean Sea Level PressureIn, Min Sea Level PressureIn, Max VisibilityMiles, Mean VisibilityMiles, Min VisibilityMiles, Max Wind SpeedMPH, Mean Wind SpeedMPH, Max Gust SpeedMPH,PrecipitationIn, CloudCover, Events, WindDirDegrees
2011-9-1,,,,,,,,,,,,,,,,,,,,,,
2011-9-2,,,,,,,,,,,,,,,,,,,,,,
2011-9-3,,,,,,,,,,,,,,,,,,,,,,
2011-9-4,,,,,,,,,,,,,,,,,,,,,,
2011-9-5,,,,,,,,,,,,,,,,,,,,,,
2011-9-6,,,,,,,,,,,,,,,,,,,,,,
2011-9-7,69,61,53,43,41,39,62,47,35,30.51,30.44,30.39,10,10,10,17,6,23,0.00,3,,12
2011-9-8,71,58,44,43,38,30,76,53,22,30.52,30.45,30.34,10,10,10,18,7,30,0.00,5,Thunderstorm,360
2011-9-9,69,56,42,37,35,30,81,52,23,30.45,30.37,30.26,10,10,10,16,9,23,0.00,1,,50
2011-9-10,69,53,37,36,32,28,75,48,21,30.42,30.37,30.30,10,10,10,21,7,26,0.00,1,,62
2011-9-11,66,52,37,46,37,30,82,61,35,30.51,30.44,30.35,10,10,9,17,5,23,0.00,4,,14
2011-9-12,68,54,39,45,39,36,87,60,30,30.52,30.46,30.39,10,10,10,15,3,18,0.00,5,,355
2011-9-13,68,54,41,43,37,34,76,60,30,30.47,30.41,30.32,10,10,10,12,4,17,0.02,4,,359
2011-9-14,59,48,37,45,38,32,87,74,48,30.37,30.30,30.23,10,10,8,21,3,,0.23,5,Thunderstorm,360
2011-9-15,57,48,39,45,40,37,93,73,51,30.26,30.22,30.16,10,10,3,26,2,34,0.03,6,Thunderstorm,13
2011-9-16,62,53,44,43,40,37,87,68,42,30.26,30.21,30.16,10,10,10,16,4,24,0.00,7,,355
2011-9-17,57,50,42,43,38,36,82,69,47,30.36,30.27,30.23,10,10,8,17,5,23,0.05,6,,247
2011-9-18,64,48,32,39,34,28,87,63,32,30.47,30.41,30.36,10,10,10,12,3,22,0.00,3,,330
2011-9-19,69,50,32,37,32,27,87,54,20,30.51,30.42,30.30,10,10,10,15,3,24,0.00,0,,285
2011-9-20,69,50,32,36,30,25,81,50,18,30.40,30.33,30.24,10,10,10,21,4,29,0.00,1,,294
2011-9-21,69,50,30,34,28,21,87,47,16,30.36,30.30,30.24,10,10,10,20,3,29,0.00,1,,288
2011-9-22,71,50,30,30,27,23,80,45,17,30.48,30.42,30.35,10,10,10,12,3,16,0.00,0,,258
2011-9-23,73,52,30,32,27,19,80,46,15,30.59,30.48,30.36,10,10,10,13,3,16,0.00,0,,236
2011-9-24,75,54,33,37,31,27,81,45,18,30.45,30.35,30.22,10,10,10,15,3,21,0.00,0,,272
2011-9-25,75,54,32,32,27,21,75,42,16,30.32,30.24,30.13,10,10,10,20,4,25,0.00,0,,297
2011-9-26,73,52,30,30,26,18,70,40,12,30.35,30.28,30.22,10,10,10,12,3,16,0.00,0,,243
2011-9-27,75,52,30,30,26,21,75,39,14,30.47,30.38,30.30,10,10,10,13,2,,0.00,0,,301
2011-9-28,75,52,28,30,26,21,74,42,17,30.47,30.39,30.30,10,10,10,12,2,,0.00,0,,243
2011-9-29,77,55,33,34,29,25,75,45,17,30.48,30.42,30.34,10,10,9,20,2,30,0.00,1,,307
2011-9-30,71,52,32,36,31,27,81,50,20,30.54,30.46,30.34,10,10,5,15,3,28,0.00,1,,219